Flag for Norway Weather past 2 weeks in Hammerfest, Norway

Now
37 °F

Scattered showers. Broken clouds.


Feels Like: 27 °F
Forecast: 30 / 33 °F
Wind: 21 mph from Southwest

Location: Hammerfest


UV Index: 0 (Low)

Visibility: N/A


Pressure: 29.30 "Hg

Humidity: 70%

Dew point: 28 °F

Location of HammerfestLocation

Historic Weather in Hammerfest

°F

Hammerfest temperature yesterday

Maximum temperature yesterday: 39 °F (at 8:50 PM)
Minimum temperature yesterday: 30 °F (at 5:50 AM)
Average temperature yesterday: 35 °F

Past Weeks' High & Low Weather Summary

 TemperatureHumidityPressure
High39 °F (Apr 10, 1:50 PM)100% (Apr 8, 5:50 AM)30.09 "Hg (Apr 8, 5:50 AM)
Low18 °F (Apr 8, 5:50 AM)47% (Apr 9, 12:50 PM)29.00 "Hg (Apr 13, 3:50 AM)
Average31 °F77%29.55 "Hg
* Reported Apr 2 10:50 AM — Apr 17 10:50 AM, Hammerfest, Weather by CustomWeather, © 2014

Note: Actual official high and low records may vary slightly from our data, if they occured in-between our weather recording intervals... More about our weather records

Advertising

Historic Weather Conditions — Data for Previous 24 hours

 ConditionsComfort  
Time TempWeatherWind HumidityBarometerVisibility
10:50 AM
Apr 17
36 °FScattered showers. Scattered clouds.14 mph87%29.30 "HgN/A
9:50 AM37 °FScattered showers. Partly sunny.22 mph70%29.27 "HgN/A
8:50 AM36 °FScattered clouds.22 mph81%29.30 "HgN/A
7:50 AM36 °FSprinkles. Broken clouds.21 mph87%29.30 "HgN/A
6:50 AM36 °FScattered showers. Broken clouds.14 mph87%29.30 "HgN/A
5:50 AM36 °FScattered showers. Broken clouds.14 mph87%29.30 "HgN/A
4:50 AM37 °FSprinkles. Partly cloudy.13 mph87%29.30 "HgN/A
3:50 AM37 °FSprinkles. Passing clouds.12 mph87%29.30 "HgN/A
2:50 AM39 °FPartly cloudy.14 mph87%29.30 "HgN/A
12:50 AM39 °FPartly cloudy.10 mph70%29.30 "HgN/A
11:50 PM
Apr 16
39 °FClear.14 mph70%29.30 "Hg10 mi
10:50 PM39 °FPassing clouds.18 mph70%29.30 "HgN/A
9:50 PM39 °FPartly cloudy.15 mph70%29.30 "HgN/A
8:50 PM39 °FBroken clouds.17 mph70%29.33 "HgN/A
7:50 PM37 °FBroken clouds.17 mph70%29.39 "HgN/A
6:50 PM37 °FBroken clouds.20 mph70%29.42 "HgN/A
5:50 PM36 °FBroken clouds.15 mph81%29.45 "HgN/A
4:50 PM36 °FScattered showers. Broken clouds.17 mph75%29.50 "HgN/A
3:50 PM36 °FMostly cloudy.16 mph75%29.53 "HgN/A
2:50 PM36 °FPartly sunny.22 mph65%29.56 "HgN/A
1:50 PM34 °FSunny.18 mph65%29.59 "Hg10 mi
12:50 PM34 °FPartly sunny.18 mph56%29.62 "HgN/A
Weather by CustomWeather, © 2014

See weather overview